Flag for Austria Weather past 2 weeks in Hartberg, Styria, Austria

Now
54 °F

Fog.


Feels Like: 54 °F
Forecast: 54 / 80 °F
Wind: 1 mph from North

Location: Graz-Thalerhof-Flughafen

Current Time: May 4, 2015 at 8:14:47 AM

Latest Report: May 4, 2015 at 7:50 AM


Visibility: 0 mi

Pressure: 29.92 "Hg

Humidity: 100%

Dew point: 54 °F

Location of HartbergLocation

Historic Weather in Hartberg — Graph

°F

Hartberg temperature yesterday

Maximum temperature yesterday: 59 °F (at 2:20 PM)
Minimum temperature yesterday: 50 °F (at 3:50 AM)
Average temperature yesterday: 55 °F

Past Weeks' High & Low Weather Summary

 TemperatureHumidityPressure
High73 °F (Apr 25, 3:20 PM)100% (Apr 19, 6:20 AM)30.21 "Hg (Apr 19, 6:20 AM)
Low32 °F (Apr 19, 6:20 AM)18% (Apr 21, 4:20 PM)29.53 "Hg (Apr 28, 5:50 AM)
Average55 °F64%29.95 "Hg
* Reported Apr 19 6:20 AM — May 4 6:50 AM, Hartberg, Weather by CustomWeather, © 2015

Note: Actual official high and low records may vary slightly from our data, if they occured in-between our weather recording intervals... More about our weather records

Advertising

Hartberg weather history for previous 24 hours

 ConditionsComfort  
Time TempWeatherWind HumidityBarometerVisibility
6:50 AM
Mon, May 4
52 °FFog.1 mph100%29.89 "Hg0 mi
6:20 AM52 °FFog.2 mph100%29.89 "Hg0 mi
5:50 AM52 °FFog.2 mph100%29.89 "Hg0 mi
5:20 AM54 °FFog.1 mph100%29.89 "Hg0 mi
4:50 AM54 °FFog.1 mph100%29.89 "Hg0 mi
4:20 AM54 °FFog.1 mph100%29.86 "Hg0 mi
3:50 AM54 °FFog.1 mph100%29.89 "Hg0 mi
3:20 AM54 °FFog.1 mph100%29.89 "Hg1 mi
2:50 AM54 °FFog.2 mph100%29.89 "Hg1 mi
2:20 AM54 °FFog.3 mph100%29.86 "Hg1 mi
1:50 AM54 °FCool.1 mph100%29.89 "Hg1 mi
1:20 AM54 °FCool.1 mph100%29.89 "Hg2 mi
12:50 AM55 °FPassing clouds.1 mph94%29.89 "Hg4 mi
12:20 AM54 °FFog.3 mph100%29.89 "Hg3 mi
11:50 PM
Sun, May 3
55 °FFog.1 mph94%29.89 "Hg3 mi
11:20 PM55 °FFog.2 mph100%29.89 "Hg3 mi
10:50 PM55 °FFog.1 mph100%29.89 "Hg3 mi
10:20 PM55 °FPassing clouds.1 mph100%29.89 "Hg4 mi
9:50 PM55 °FLight rain. Passing clouds.1 mph100%29.89 "Hg5 mi
9:20 PM55 °FPassing clouds.1 mph100%29.89 "HgN/A
8:50 PM55 °FBroken clouds.1 mph100%29.89 "HgN/A
8:20 PM57 °FLight rain. Broken clouds.1 mph94%29.89 "HgN/A
7:50 PM57 °FLight rain. Broken clouds.1 mph94%29.89 "HgN/A
7:20 PM57 °FLight rain. Broken clouds.2 mph88%29.86 "HgN/A
6:50 PM57 °FLight rain. Broken clouds.3 mph88%29.86 "HgN/A
6:20 PM59 °FLight rain. Partly sunny.1 mph82%29.86 "HgN/A
5:50 PM59 °FLight rain. Broken clouds.1 mph77%29.86 "HgN/A
5:20 PM59 °FLight rain. Broken clouds.1 mph77%29.86 "HgN/A
4:50 PM59 °FLight rain. Broken clouds.2 mph77%29.86 "HgN/A
4:20 PM59 °FBroken clouds.1 mph77%29.86 "HgN/A
3:50 PM59 °FBroken clouds.1 mph77%29.86 "HgN/A
3:20 PM59 °FPartly sunny.2 mph77%29.89 "HgN/A
2:50 PM59 °FPartly sunny.5 mph77%29.89 "HgN/A
2:20 PM59 °FPartly sunny.2 mph77%29.89 "HgN/A
1:50 PM57 °FMore clouds than sun.5 mph77%29.89 "HgN/A
1:20 PM57 °FMore clouds than sun.3 mph77%29.89 "HgN/A
12:50 PM57 °FMore clouds than sun.2 mph77%29.89 "HgN/A
12:20 PM55 °FMore clouds than sun.2 mph82%29.89 "HgN/A
11:50 AM55 °FMore clouds than sun.2 mph82%29.92 "HgN/A
11:20 AM55 °FMostly cloudy.2 mph82%29.92 "HgN/A
10:50 AM54 °FLight rain. Mostly cloudy.1 mph88%29.92 "HgN/A
10:20 AM54 °FBroken clouds.2 mph82%29.92 "HgN/A
9:50 AM54 °FBroken clouds.3 mph82%29.92 "HgN/A
9:20 AM54 °FBroken clouds.3 mph82%29.92 "HgN/A
8:50 AM52 °FBroken clouds.3 mph88%29.92 "HgN/A
8:20 AM52 °FBroken clouds.5 mph88%29.92 "HgN/A
Weather by CustomWeather, © 2015

See weather overviewHow to use our weather pages